K9UO Weather Reports


time (UTC)temp
F
wind
direction
speed
knots
gust
knots
rain 1hr
in
rain 24hr
in
rain mn
in
humidity
%
barometer
mb
20260507180000 54 327 7.0 15.6 0.00 0.00 0.00 46 1014.5
20260507174608 54 360 7.8 13.0 0.00 0.00 0.00 47 1014.7
20260507173103 54 270 5.2 12.2 0.00 0.00 0.00 48 1014.9
20260507171611 53 304 7.8 13.0 0.00 0.00 0.00 47 1015.1
20260507170057 53 338 7.0 13.0 0.00 0.00 0.00 46 1015.2
20260507164605 53 338 7.8 13.9 0.00 0.00 0.00 49 1015.4
20260507163050 52 21 7.0 15.6 0.00 0.00 0.00 47 1015.5
20260507161550 52 19 7.8 13.0 0.00 0.00 0.00 47 1015.4
20260507160045 51 322 4.3 11.3 0.00 0.00 0.00 50 1015.5
20260507154544 51 350 4.3 9.6 0.00 0.00 0.00 51 1015.4
20260507153047 50 333 7.8 10.4 0.00 0.00 0.00 50 1015.5
20260507151542 49 10 5.2 10.4 0.00 0.00 0.00 52 1015.3
20260507150037 49 227 3.5 10.4 0.00 0.00 0.00 53 1015.3
20260507144536 48 279 4.3 10.4 0.00 0.00 0.00 51 1015.4
20260507143033 48 284 3.5 11.3 0.00 0.00 0.00 53 1015.5
20260507141532 48 335 3.5 9.6 0.00 0.00 0.00 54 1015.5
20260507140031 47 360 2.6 7.8 0.00 0.00 0.00 54 1015.3
20260507134536 47 258 4.3 8.7 0.00 0.00 0.00 54 1015.4
20260507133029 46 242 3.5 7.8 0.00 0.00 0.00 55 1015.4
20260507131534 46 360 2.6 6.1 0.00 0.00 0.00 54 1015.3
20260507130026 45 21 3.5 7.8 0.00 0.00 0.00 55 1015.2
20260507124523 44 360 4.3 7.8 0.00 0.00 0.00 52 1015.3
20260507123021 43 343 1.7 5.2 0.00 0.00 0.00 46 1015.2
20260507121520 42 216 0.9 4.3 0.00 0.00 0.00 42 1015.2
20260507120019 42 232 0.9 3.5 0.00 0.00 0.00 44 1015.2
20260507114525 42 304 0.9 2.6 0.00 0.00 0.00 43 1015.2
20260507113017 41 265 0.9 4.3 0.00 0.00 0.00 41 1015.2
20260507111520 41 338 0.9 3.5 0.00 0.00 0.00 34 1015.0
20260507110014 40 317 0.9 1.7 0.00 0.00 0.00 31 1014.8
20260507104511 40 311 0.0 1.7 0.00 0.01 0.00 32 1014.8
20260507103011 40 329 0.0 3.5 0.00 0.01 0.00 32 1014.8
20260507101517 40 266 0.9 3.5 0.00 0.01 0.00 32 1014.7
20260507100008 40 282 0.9 3.5 0.00 0.01 0.00 31 1014.7
20260507094507 40 285 0.0 1.7 0.00 0.01 0.00 31 1014.7
20260507093006 40 285 0.0 1.7 0.00 0.01 0.00 30 1014.7
20260507091504 41 281 0.0 0.9 0.00 0.01 0.00 32 1014.8
20260507090001 41 282 0.0 0.9 0.00 0.01 0.00 35 1014.7
20260507084601 42 283 0.0 2.6 0.00 0.01 0.00 37 1014.5
20260507083058 42 252 0.9 3.5 0.00 0.01 0.00 38 1014.5
20260507081557 42 271 0.9 3.5 0.00 0.01 0.00 39 1014.5
20260507080056 43 290 1.7 4.3 0.00 0.01 0.00 39 1014.5
20260507074554 43 309 0.9 3.5 0.00 0.01 0.00 41 1014.5
20260507073052 43 257 0.0 3.5 0.00 0.01 0.00 42 1014.4
20260507071555 43 320 0.0 1.7 0.00 0.01 0.00 44 1014.5
20260507070059 44 304 0.9 3.5 0.00 0.01 0.00 45 1014.4
20260507064546 44 313 0.9 3.5 0.00 0.02 0.00 45 1014.5
20260507063043 45 272 0.9 3.5 0.00 0.02 0.00 46 1014.6
20260507061541 45 260 0.9 3.5 0.00 0.02 0.00 45 1014.6
20260507060048 45 275 0.9 4.3 0.00 0.02 0.00 43 1014.6
20260507054537 45 310 0.0 1.7 0.00 0.03 0.00 40 1014.7
20260507053036 46 311 0.0 0.0 0.00 0.03 0.00 40 1014.5
20260507051540 46 317 0.0 0.9 0.00 0.03 0.00 40 1014.6
20260507050039 46 314 0.0 3.5 0.00 0.03 0.00 41 1014.5
20260507044531 47 326 0.9 1.7 0.00 0.05 0.00 40 1014.5
20260507043029 47 340 0.0 3.5 0.00 0.05 0.00 38 1014.6
20260507041530 47 257 0.0 0.0 0.00 0.05 0.00 35 1014.5
20260507040028 47 255 0.0 0.9 0.00 0.05 0.00 34 1014.5
20260507034534 47 243 0.0 0.9 0.00 0.07 0.05 36 1014.5
20260507033019 47 243 0.0 0.9 0.00 0.07 0.05 38 1014.6
20260507031514 48 243 0.0 1.7 0.00 0.07 0.05 39 1014.6
20260507030017 48 244 0.0 1.7 0.00 0.07 0.05 42 1014.5
20260507024505 49 244 0.0 1.7 0.00 0.09 0.05 46 1014.5
20260507023001 49 244 0.0 1.7 0.00 0.09 0.05 49 1014.5
20260507021600 49 257 0.0 0.9 0.00 0.09 0.05 49 1014.6
20260507020054 49 257 0.0 1.7 0.00 0.09 0.05 45 1014.4
20260507014550 50 257 0.0 1.7 0.00 0.13 0.05 47 1014.4
20260507013043 50 257 0.0 1.7 0.00 0.13 0.05 50 1014.3
20260507011544 51 257 0.0 0.9 0.00 0.13 0.05 55 1014.1
20260507010036 51 257 0.0 0.9 0.00 0.13 0.05 57 1013.7
20260507004530 52 257 0.0 1.7 0.00 0.17 0.05 57 1013.6
20260507003026 52 257 0.0 1.7 0.00 0.17 0.05 56 1013.4
20260507001523 53 226 0.0 3.5 0.00 0.17 0.05 55 1013.5
20260507000018 54 281 2.6 5.2 0.00 0.17 0.05 53 1013.4
20260506234516 55 295 2.6 6.1 0.00 0.20 0.05 52 1013.3
20260506233015 55 232 3.5 6.1 0.00 0.20 0.05 52 1013.3
20260506231512 55 223 1.7 5.2 0.00 0.20 0.05 52 1013.4
20260506230010 55 24 4.3 6.1 0.00 0.20 0.05 55 1013.5
20260506224501 55 245 1.7 5.2 0.00 0.22 0.05 53 1013.6
20260506223101 55 238 4.3 7.8 0.00 0.22 0.05 53 1013.9
20260506221553 54 239 3.5 7.0 0.00 0.22 0.05 53 1013.9
20260506220051 54 275 0.9 6.1 0.00 0.22 0.05 53 1013.8
20260506214544 54 314 2.6 7.0 0.00 0.24 0.05 54 1013.6
20260506213040 54 351 1.7 7.0 0.00 0.24 0.05 54 1013.7
20260506211546 54 350 3.5 6.1 0.00 0.24 0.05 52 1013.5
20260506210035 54 18 4.3 7.8 0.00 0.24 0.05 52 1013.4
20260506204529 54 284 3.5 7.0 0.00 0.26 0.05 54 1013.3
20260506203027 54 351 4.3 7.0 0.00 0.26 0.05 53 1013.4
20260506201525 54 15 3.5 7.0 0.00 0.26 0.05 53 1013.5
20260506200017 54 9 5.2 9.6 0.00 0.26 0.05 52 1013.6
20260506194511 54 324 3.5 8.7 0.00 0.34 0.05 51 1013.7
20260506193008 54 314 1.7 7.8 0.00 0.34 0.05 53 1013.6
20260506191502 54 265 1.7 6.1 0.00 0.34 0.05 53 1013.5
20260506190059 54 254 2.6 7.0 0.00 0.34 0.05 52 1013.4
20260506184554 53 309 0.0 7.0 0.00 0.34 0.05 52 1013.6
20260506183049 53 13 1.7 7.0 0.00 0.34 0.05 53 1013.6
20260506181545 53 260 1.7 6.1 0.00 0.34 0.05 53 1013.7